[[{"header":{"parameterUnit":"m.s-1","parameterCategory":1,"la1":30.2991,"la2":30.254,"lo1":-89.0895,"lo2":-89.0444,"dy":0.0017,"dx":0.0017,"nx":28,"ny":28,"refTime":"2024-02-22T09:00:00:Z","depth":0,"parameterNumber":2,"parameterNumberName":"U-component_of_WINDS"},"data":[0,0,0,0,0,0,0,0,0,0,0,0,0,0,0,0,0,0,0,0,0,0,0,0,0,0,0,0,0,0,0,0,0,0,0,0,0,0,0,0,0,0,0,0,0,0,0,0,0,0,0,0,0,0,0,0,0,0,3.395,3.3951,0,3.4,3.4,3.4001,3.3984,3.3983,3.3982,3.3981,3.4032,3.4035,3.4037,0,0,0,0,0,0,0,0,0,0,0,0,0,3.3846,3.3848,3.395,3.3951,3.3952,3.3999,3.4,3.4001,3.3985,3.3983,3.3982,3.3981,3.4031,3.4034,3.4037,0,0,0,0,0,0,0,0,0,0,0,0,0,3.3893,3.3849,3.395,3.3949,3.395,3.3999,3.4,3.4001,3.3985,3.3983,3.3982,3.398,3.4031,3.4034,3.4037,3.4091,0,0,3.4048,3.405,0,0,0,0,0,0,0,0,3.389,3.3897,3.3949,3.3949,3.395,3.3984,3.3982,3.4031,3.3985,3.3972,3.3981,3.3979,3.4018,3.4022,3.4035,3.4094,3.4096,3.4049,3.4051,3.4052,3.4053,0,0,0,0,0,0,0,3.3887,3.3894,3.397,3.395,3.395,3.3948,3.3952,3.3991,3.4003,3.3973,3.3972,3.3978,3.4018,3.4031,3.4036,3.4096,3.4048,3.4052,3.4054,3.4055,3.4206,3.4208,0,0,0,0,0,0,3.3883,3.3892,3.3968,3.3971,3.3916,3.3951,3.3956,3.3975,3.4002,3.4005,3.3979,3.3977,3.4026,3.4032,3.4038,3.4105,3.4052,3.4055,3.4057,3.4204,3.4206,3.4208,0,0,0,0,0,0,3.3881,3.389,3.3966,3.3931,3.3941,3.3954,3.3975,3.3977,3.399,3.4007,3.4009,3.3991,3.4025,3.4033,3.4079,3.4106,3.4057,3.406,3.4202,3.4205,3.4207,3.4238,0,0,0,0,0,0,3.3878,3.3889,3.3909,3.3932,3.3943,3.4006,3.3977,3.3979,3.3996,3.3994,3.4019,3.4021,3.4024,3.4074,3.4082,3.411,3.4063,3.4199,3.4203,3.4206,3.4234,3.4241,3.4247,0,0,0,0,0,3.3874,3.3915,3.391,3.3919,3.3967,3.4007,3.4014,3.4016,3.3999,3.4019,3.4031,3.4021,3.4102,3.4078,3.4088,3.4117,3.4198,3.4202,3.4206,3.4232,3.424,3.4247,0,0,0,0,0,0,3.3894,3.3918,3.3912,3.3962,3.3983,3.4004,3.403,3.4024,3.4051,3.4047,3.405,3.4056,3.4104,3.4115,3.4089,3.4173,3.4147,3.4154,3.4163,3.4172,3.4178,3.4174,3.4066,0,0,0,0,0,3.3904,3.3934,3.3953,3.3995,3.4006,3.4016,3.4034,3.4034,3.4056,3.4065,3.4079,3.4102,3.4133,3.4153,3.4182,3.4236,3.4243,3.4262,3.4268,3.4273,3.4279,3.4312,3.4321,3.4222,3.4222,3.4222,0,0,3.3925,3.3942,3.396,3.3999,3.4016,3.4048,3.4024,3.4058,3.4082,3.407,3.4115,3.4127,3.4152,3.4204,3.4227,3.4215,3.4308,3.4279,3.4283,3.4285,3.4317,3.4326,3.4335,3.4225,3.4225,3.4224,0,0,3.398,3.3995,3.4033,3.405,3.4076,3.4083,3.4092,3.4116,3.4123,3.4169,3.4161,3.4191,3.4243,3.4262,3.4279,3.4345,3.4338,3.4355,3.4388,3.4421,3.4428,3.4435,3.4461,3.447,3.436,3.436,3.436,0,3.4003,3.4051,3.4053,3.4089,3.4107,3.4099,3.4138,3.4155,3.4189,3.4202,3.4188,3.4256,3.4272,3.4329,3.4346,3.4359,3.4371,3.4352,3.4427,3.4434,3.444,3.4465,3.4475,3.4362,3.4362,3.4362,3.4362,0,3.4079,3.4112,3.414,3.4174,3.4195,3.4233,3.4242,3.4264,3.4264,3.4273,3.4321,3.4341,3.4375,3.4389,3.4388,3.4447,3.4439,3.4426,3.44,3.4452,3.4475,3.4485,3.4365,3.4364,3.4364,3.4363,0,0,3.4146,3.4183,3.4193,3.421,3.4239,3.4265,3.4304,3.4337,3.4357,3.4382,3.4415,3.4462,3.4451,3.447,3.4471,3.4499,3.4554,3.4483,3.4484,3.4497,3.4624,3.4634,3.4645,3.455,3.4551,3.4553,3.4622,0,3.4205,3.4272,3.4277,3.4338,3.437,3.4364,3.4398,3.442,3.4431,3.4461,3.4473,3.4506,3.4488,3.45,3.4528,3.4542,3.458,3.4537,3.4583,3.4584,3.4577,3.4657,3.4667,3.4732,3.4631,3.4633,3.4634,0,3.4282,3.431,3.4375,3.4402,3.4416,3.4446,3.4479,3.4507,3.4534,3.454,3.4563,3.4562,3.4603,3.4577,3.4635,3.4606,3.4625,3.4635,3.4638,3.4643,3.4613,3.4666,3.4752,3.4762,3.4648,3.4647,3.4646,0,3.4327,3.4381,3.4427,3.4441,3.4474,3.4496,3.4511,3.4536,3.4557,3.4586,3.4601,3.4634,3.4653,3.468,3.4689,3.4669,3.4749,3.4722,3.4757,3.4757,3.4774,3.4773,3.4866,3.4784,3.4784,3.4784,3.4784,0,3.4393,3.4433,3.4448,3.4477,3.4523,3.4529,3.4574,3.4588,3.4611,3.4643,3.464,3.4671,3.468,3.4713,3.4721,3.477,3.4778,3.4785,3.4787,3.4786,3.4785,3.4799,3.4796,3.4787,3.4786,3.4786,3.4785,0,3.4451,3.4462,3.4513,3.4541,3.4549,3.4582,3.4606,3.4634,3.4646,3.4687,3.4697,3.4715,3.4754,3.4766,3.4812,3.4817,3.4876,3.4872,3.4867,3.4867,3.4902,3.4899,3.5008,3.5024,3.4931,3.4931,3.4932,0,3.4493,3.4524,3.4555,3.4577,3.4593,3.4627,3.465,3.4658,3.4682,3.4716,3.4741,3.478,3.4811,3.4875,3.4892,3.4929,3.4928,3.4964,3.4933,3.4933,3.4931,3.4929,3.4934,3.4969,3.497,3.4971,3.4972,0,3.4566,3.4571,3.4603,3.4638,3.4665,3.4693,3.472,3.4738,3.475,3.4777,3.4818,3.4842,3.4891,3.4931,3.4969,3.4985,3.4982,3.4982,3.4992,3.4992,3.4988,3.4993,3.4884,3.4979,3.4978,3.4978,3.4977,3.4977,3.4619,3.4647,3.4675,3.4711,3.4733,3.4759,3.4788,3.4804,3.4837,3.4878,3.4881,3.4925,3.4954,3.5005,3.5024,3.5059,3.5049,3.5063,3.5067,3.5071,3.5075,3.4982,3.5066,3.5066,3.5066,3.5066,3.5066,0,3.4694,3.4712,3.4746,3.4784,3.4814,3.4808,3.4838,3.4864,3.4903,3.493,3.4961,3.501,3.5049,3.507,3.511,3.5135,3.5134,3.5145,3.5144,3.5148,3.5081,3.5069,3.5145,3.5145,3.5145,3.5145,3.5145,3.5145,3.4736,3.4785,3.4794,3.4855,3.4873,3.4916,3.4934,3.4959,3.4981,3.5035,3.5068,3.5082,3.5108,3.515,3.5186,3.5192,3.5207,3.5219,3.5224,3.5161,3.5153,3.5145,3.5134,3.5222,3.5222,3.5289,3.529,3.529]},{"header":{"parameterUnit":"m.s-1","parameterCategory":1,"la1":30.2991,"la2":30.254,"lo1":-89.0895,"lo2":-89.0444,"dy":0.0017,"dx":0.0017,"nx":28,"ny":28,"refTime":"2024-02-22T09:00:00:Z","depth":0,"parameterNumber":3,"parameterNumberName":"V-component_of_WINDS"},"data":[0,0,0,0,0,0,0,0,0,0,0,0,0,0,0,0,0,0,0,0,0,0,0,0,0,0,0,0,0,0,0,0,0,0,0,0,0,0,0,0,0,0,0,0,0,0,0,0,0,0,0,0,0,0,0,0,0,0,-5.3025,-5.3024,0,-5.2929,-5.2928,-5.2927,-5.2934,-5.2935,-5.2937,-5.2938,-5.2828,-5.2824,-5.282,0,0,0,0,0,0,0,0,0,0,0,0,0,-5.3206,-5.3203,-5.3026,-5.3024,-5.3023,-5.2929,-5.2928,-5.2927,-5.2934,-5.2935,-5.2937,-5.2939,-5.283,-5.2825,-5.282,0,0,0,0,0,0,0,0,0,0,0,0,0,-5.312,-5.3202,-5.3026,-5.3016,-5.3014,-5.293,-5.2928,-5.2926,-5.2933,-5.2935,-5.2938,-5.294,-5.2832,-5.2825,-5.2819,-5.2735,0,0,-5.2799,-5.2797,0,0,0,0,0,0,0,0,-5.3125,-5.3114,-5.3018,-5.3016,-5.3014,-5.2946,-5.2952,-5.2862,-5.2933,-5.2963,-5.2938,-5.2941,-5.2865,-5.2856,-5.2833,-5.273,-5.2726,-5.2799,-5.2795,-5.2792,-5.279,0,0,0,0,0,0,0,-5.3131,-5.3118,-5.2987,-5.3017,-5.3014,-5.3013,-5.3003,-5.2935,-5.2903,-5.2961,-5.2961,-5.295,-5.2864,-5.2839,-5.283,-5.2724,-5.2799,-5.2793,-5.2789,-5.2787,-5.2547,-5.2545,0,0,0,0,0,0,-5.3141,-5.3123,-5.299,-5.2984,-5.3077,-5.3008,-5.2997,-5.2965,-5.2904,-5.2896,-5.2949,-5.2951,-5.2849,-5.2838,-5.2826,-5.2723,-5.2792,-5.2786,-5.2782,-5.255,-5.2547,-5.2544,0,0,0,0,0,0,-5.3145,-5.3129,-5.2994,-5.3054,-5.3036,-5.3002,-5.2967,-5.2962,-5.2937,-5.2894,-5.2888,-5.2929,-5.285,-5.2835,-5.2759,-5.272,-5.2783,-5.2777,-5.2553,-5.2549,-5.2545,-5.2518,0,0,0,0,0,0,-5.315,-5.3131,-5.31,-5.3053,-5.3033,-5.293,-5.2965,-5.2959,-5.2927,-5.293,-5.2874,-5.2867,-5.2851,-5.2768,-5.2752,-5.2712,-5.2772,-5.2556,-5.2551,-5.2547,-5.2522,-5.2513,-5.2506,0,0,0,0,0,-5.3156,-5.3094,-5.3099,-5.3083,-5.2995,-5.2928,-5.2916,-5.2902,-5.2924,-5.2892,-5.2865,-5.2869,-5.2728,-5.276,-5.2742,-5.27,-5.2558,-5.2552,-5.2547,-5.2525,-5.2515,-5.2506,0,0,0,0,0,0,-5.3133,-5.3087,-5.3092,-5.3013,-5.2975,-5.293,-5.2888,-5.2892,-5.2843,-5.2847,-5.2828,-5.2815,-5.2738,-5.2711,-5.2749,-5.2615,-5.2645,-5.2636,-5.2635,-5.2625,-5.2617,-5.2624,-5.2767,0,0,0,0,0,-5.312,-5.3072,-5.3034,-5.2967,-5.2949,-5.2922,-5.2892,-5.2885,-5.2843,-5.2825,-5.2793,-5.2749,-5.2695,-5.2659,-5.2606,-5.2519,-5.2506,-5.2481,-5.2473,-5.2467,-5.2458,-5.2409,-5.2396,-5.2525,-5.2525,-5.2526,0,0,-5.3089,-5.3059,-5.3029,-5.2962,-5.2932,-5.288,-5.2908,-5.2852,-5.2812,-5.2816,-5.2742,-5.2716,-5.2666,-5.2584,-5.2546,-5.2559,-5.242,-5.246,-5.2455,-5.2449,-5.2401,-5.2389,-5.2378,-5.2522,-5.2522,-5.2523,0,0,-5.3007,-5.2981,-5.2922,-5.2893,-5.2848,-5.2831,-5.2817,-5.2772,-5.2756,-5.2683,-5.2685,-5.2636,-5.2543,-5.2507,-5.2477,-5.2385,-5.2386,-5.2368,-5.2326,-5.2278,-5.2268,-5.2259,-5.2223,-5.2211,-5.236,-5.236,-5.236,0,-5.2974,-5.2899,-5.2891,-5.2835,-5.2805,-5.2811,-5.275,-5.272,-5.2659,-5.2636,-5.2654,-5.2539,-5.2505,-5.2414,-5.2392,-5.2368,-5.2349,-5.2372,-5.2271,-5.2261,-5.2253,-5.2219,-5.2206,-5.2358,-5.2358,-5.2358,-5.2358,0,-5.286,-5.2808,-5.2766,-5.2711,-5.2676,-5.2618,-5.2598,-5.2564,-5.256,-5.2541,-5.2465,-5.2427,-5.2366,-5.2345,-5.2339,-5.2252,-5.2262,-5.2276,-5.2305,-5.2238,-5.2206,-5.2193,-5.2355,-5.2356,-5.2356,-5.2357,0,0,-5.2756,-5.2701,-5.2685,-5.266,-5.2613,-5.2571,-5.2513,-5.2458,-5.2427,-5.2386,-5.2334,-5.2257,-5.227,-5.2236,-5.2226,-5.2185,-5.2112,-5.2203,-5.2201,-5.2185,-5.2012,-5.2,-5.1985,-5.2114,-5.2112,-5.211,-5.2015,0,-5.2667,-5.2568,-5.256,-5.2469,-5.242,-5.2426,-5.2375,-5.2339,-5.232,-5.2273,-5.2251,-5.2196,-5.2218,-5.2197,-5.2157,-5.213,-5.2076,-5.2137,-5.2062,-5.206,-5.2072,-5.1968,-5.1955,-5.1867,-5.2003,-5.2,-5.1999,0,-5.255,-5.2509,-5.2414,-5.2375,-5.2353,-5.2308,-5.2257,-5.2214,-5.2172,-5.2161,-5.2125,-5.2122,-5.2059,-5.2094,-5.2005,-5.2047,-5.2016,-5.1998,-5.1994,-5.1984,-5.2023,-5.1952,-5.1839,-5.1825,-5.1979,-5.1981,-5.1982,0,-5.2481,-5.2402,-5.2335,-5.2314,-5.2267,-5.2235,-5.2213,-5.2174,-5.2142,-5.2097,-5.2075,-5.2022,-5.1992,-5.195,-5.1931,-5.1959,-5.1843,-5.1877,-5.1829,-5.1829,-5.1801,-5.1802,-5.1678,-5.1787,-5.1787,-5.1787,-5.1788,0,-5.2381,-5.2322,-5.2304,-5.2262,-5.2196,-5.2187,-5.212,-5.21,-5.2066,-5.2018,-5.202,-5.1974,-5.1955,-5.1905,-5.189,-5.1818,-5.1805,-5.1791,-5.1787,-5.1789,-5.179,-5.1766,-5.177,-5.1784,-5.1784,-5.1785,-5.1786,0,-5.2291,-5.2277,-5.2204,-5.2167,-5.2157,-5.2109,-5.2075,-5.2034,-5.2018,-5.1957,-5.1942,-5.1914,-5.1856,-5.1835,-5.1763,-5.1754,-5.1669,-5.1672,-5.1684,-5.1682,-5.1634,-5.1638,-5.1487,-5.1466,-5.1592,-5.1591,-5.159,0,-5.2226,-5.2182,-5.2141,-5.2112,-5.209,-5.2041,-5.201,-5.1999,-5.1965,-5.1916,-5.188,-5.1824,-5.1777,-5.1684,-5.1655,-5.16,-5.1599,-5.1551,-5.159,-5.1594,-5.1595,-5.1597,-5.1591,-5.1542,-5.154,-5.1539,-5.1538,0,-5.2112,-5.2108,-5.2065,-5.2019,-5.1982,-5.1945,-5.1908,-5.1882,-5.1866,-5.1828,-5.1771,-5.1736,-5.1665,-5.1608,-5.1552,-5.1526,-5.1527,-5.1527,-5.1513,-5.1512,-5.152,-5.1512,-5.166,-5.1529,-5.153,-5.1531,-5.1531,-5.1532,-5.2031,-5.1991,-5.1957,-5.1909,-5.1881,-5.1848,-5.1807,-5.1787,-5.1741,-5.1685,-5.1681,-5.1619,-5.1578,-5.1505,-5.1476,-5.1425,-5.1438,-5.1417,-5.1412,-5.1406,-5.1401,-5.1532,-5.1415,-5.1416,-5.1416,-5.1416,-5.1416,0,-5.1914,-5.1894,-5.185,-5.1801,-5.1762,-5.1774,-5.1734,-5.1699,-5.1646,-5.161,-5.1566,-5.15,-5.1445,-5.1414,-5.1358,-5.1323,-5.1323,-5.1308,-5.1309,-5.1302,-5.1394,-5.1411,-5.131,-5.131,-5.131,-5.131,-5.131,-5.131,-5.1849,-5.1783,-5.1775,-5.1695,-5.1674,-5.1616,-5.1592,-5.156,-5.1532,-5.1459,-5.1415,-5.1397,-5.1362,-5.1305,-5.1254,-5.1246,-5.1223,-5.1208,-5.12,-5.1285,-5.1296,-5.1306,-5.1322,-5.1204,-5.1204,-5.1112,-5.1111,-5.1111]}]]